Location: St. Louis
(38.6270°N, 90.1994°W)
Time: 01:51:41
(UTC-06:00)

Transit 2A - Pass Details

Date: 06 December 2021
Orbit: 591 x 966 km, 66.7° (Epoch: 24 January)

Event Time Altitude Azimuth Distance (km) Brightness Sun altitude
Rises 21:36:03 0° 159° (SSE) 3,230 - -56.9°
Reaches altitude 10° 21:39:16 10° 138° (SE) 2,386 - -57.5°
Maximum altitude 21:42:31 16° 102° (ESE) 2,069 - -58.1°
Drops below altitude 10° 21:45:55 10° 66° (ENE) 2,540 - -58.7°
Sets 21:49:30 0° 46° (NE) 3,550 - -59.4°
